sat.trackr.live / text

‹ back to catalog

STARLINK-3550

NORAD 52373 · 2022-045AU

PAYLOAD ACTIVE UNKNOWN

§ Identity

Operator
Country
US
Launch date
2022-04-29
Launch site
AFETR
Launch vehicle
Mass (kg)
RCS (m²)

Purposes: comms

External: N2YO · Heavens-Above · Gunter

§ Orbital elements

Epoch: 2026-09-19T23:03:52.327584Z

Period
93.85 min
Inclination
53.1634°
Eccentricity
0.0001006
Mean motion
15.34385745 rev/d
Perigee alt
462.1 km
Apogee alt
463.4 km
Semi-major
6,840.9 km
B*
1.1353e-4
RAAN
20.1704°
Arg perigee
75.3538°
Mean anomaly
284.7576°
Rev number
24,548

§ Raw data

STARLINK-35501 52373U 22045AU  26262.96102231  .00003460  00000+0  11353-3 0  99932 52373  53.1634  20.1704 0001006  75.3538 284.7576 15.34385745245483

JSON: /api/v1/satellites/52373 · /tle

For live sub-satellite position, see the globe view (requires WebGL).

§ Visibility from observer

Set your observer location to see the next 7 days of passes ≥ 10°. The values pass through the URL so the page stays shareable.

No JS? Fill the form by hand. The geolocation button needs JavaScript.